DECAYED
Showing default

KUIPER-P1, 58014 (Decayed)

Orbit data source: Space-Track

KUIPER-P1, 58014 was a payload satellite owned by Kuiper Systems (US) in LEO that was launched on Fri, 06 Oct 2023 UTC via an ATLAS V 501 launch vehicle from the Air Force Eastern Test Range (AFETR). Payload-class satellites include a variety of spacecraft equipped with specific instruments for various scientific and technological missions. These include communications satellites like Starlink; space stations such as the ISS; scientific satellites like the Hubble; Earth observation satellites from companies like Planet Labs, Umbra, and HawkEye 360; GPS; miniature CubeSats for education and research; and military/defense satellites.

Not visible in the next 10 days
Identifier
58014, 2023-154B
Orbit
Decayed
Last TLE update
10 months ago
Origin
Manufacturer
Kuiper Systems
Mission
Decayed Commercial Communications
Bus & Motor
KUIPER, Unknown motor
Mass
~600 kg wet, ~600 kg dry
Launch date (UTC)
2023-10-06 (2 years ago)
Launch vehicle
ATLAS V 501
Launch site
Air Force Eastern Test Range (AFETR)
Object type
Payload
Rocket body
Debris
Shape & HBR
Box + 2 Pan, 5.0 m
Radar Cross Section
10.304 m², Large (>1 m²)

Expand to show TLE details & history

TLE from 10 months ago
0 KUIPER-P1
1 58014U 23154B   24272.85652519  .12081399 -54635-5  20153-2 0  9996
2 58014  29.9543 175.4443 0000462 256.4280 168.1507 16.32122349 55224
Epoch: 2024-09-28T20:33Z
TLE epoch observation values (Epoch: 2024-09-28T20:33:23.776Z)
Latitude
26.9335°
Longitude
-79.78286°
Altitude
185.774 km
Speed
7.8 km/s
True Right ascension
15h 46m 41s
True Declination
26° 46' 58"
Sunlit
Object was in daylight at epoch
Visualization orbit readout
Visualization observer readout
Orbital elements
Apogee altitude
191.352 km
Perigee altitude
190.745 km
Semi-major axis
6,569.185 km
Eccentricity
0.00005
Inclination
29.9543°
RAAN
175.4443°
Arg. of periapsis
256.428°
True anomaly
168.15179°
Mean anomaly
168.1507°
Eccentric anomaly
168.15124°
Mean motion
4.07639 °/min
Orbital period
88.31 mins
BSTAR
0.0020153
Loading maneuver chart data...
Loading SW <> Apogee altitude chart data...
Loading historical data...
Loading historical data...
Loading historical data...
Loading historical data...
Loading historical data...
Loading historical data...
Loading historical data...
Other satellites on launch #154 in the year 2023 (2023-10-06 UTC)
|